Location: Chagrin Falls Park
(41.4139°N, 81.3865°W)
Time: 17:37:24
(UTC+00:00)

Cosmos 2227 Rocket - Pass Details

Date: 29 October 2020
Orbit: 839 x 845 km, 71.0° (Epoch: 27 November)

Event Time Altitude Azimuth Distance (km) Brightness Sun altitude
Rises 23:40:36 0° 334° (NNW) 3,406 5.6 -14.9°
Reaches altitude 10° 23:43:03 10° 334° (NNW) 2,468 4.9 -15.4°
Maximum altitude 23:48:43 79° 248° (WSW) 862 2.3 -16.5°
Drops below altitude 10° 23:54:21 10° 163° (SSE) 2,456 4.5 -17.5°
Sets 23:56:47 0° 162° (SSE) 3,388 5.2 -18.0°
